This is the latest recevied weather packets stored in our database for station/object AF9W-5. If no packets are shown the sender has not sent any weather packets the latest 1 day(s).
| Time | Temp. | Humidity | Pressure | Rain* | Wind** | Luminosity | Snow |
|---|---|---|---|---|---|---|---|
| 1778039252 | 16.11° C | 47% | 1012.4 hPa | 0 mm | - | 0 W/m² | - |
| 1778038950 | 16.67° C | 45% | 1012.3 hPa | 0 mm | - | 0 W/m² | - |
| 1778038647 | 16.67° C | 45% | 1012.2 hPa | 0 mm | - | 0 W/m² | - |
| 1778038344 | 16.67° C | 44% | 1012.2 hPa | 0 mm | - | 0 W/m² | - |
| 1778038041 | 16.67° C | 46% | 1012.2 hPa | 0 mm | - | 0 W/m² | - |
| 1778037434 | 16.67° C | 45% | 1012.1 hPa | 0 mm | - | 0 W/m² | - |
| 1778037132 | 17.22° C | 45% | 1012.2 hPa | 0 mm | - | 0 W/m² | - |
| 1778036830 | 17.22° C | 43% | 1011.9 hPa | 0 mm | - | 0 W/m² | - |
| 1778036527 | 17.22° C | 43% | 1011.8 hPa | 0 mm | - | 0 W/m² | - |
| 1778035920 | 17.22° C | 44% | 1011.7 hPa | 0 mm | - | 0 W/m² | - |
| 1778035617 | 17.78° C | 44% | 1012 hPa | 0 mm | - | 0 W/m² | - |
| 1778035010 | 17.78° C | 41% | 1011.5 hPa | 0 mm | - | 0 W/m² | - |
| 1778034707 | 17.78° C | 41% | 1011.3 hPa | 0 mm | - | 0 W/m² | - |
| 1778033496 | 18.33° C | 39% | 1010.7 hPa | 0 mm | - | 3 W/m² | - |
| 1778033193 | 18.89° C | 37% | 1010.8 hPa | 0 mm | - | 6 W/m² | - |
| 1778032285 | 18.89° C | 35% | 1010.3 hPa | 0 mm | - | 13 W/m² | - |
| 1778031983 | 18.89° C | 34% | 1010.8 hPa | 0 mm | - | 17 W/m² | - |
| 1778031678 | 19.44° C | 34% | 1010.6 hPa | 0 mm | - | 18 W/m² | - |
| 1778031377 | 19.44° C | 33% | 1010.4 hPa | 0 mm | - | 23 W/m² | - |
| 1778031073 | 20° C | 33% | 1010.2 hPa | 0 mm | - | 27 W/m² | - |
| 1778030769 | 20° C | 34% | 1010.3 hPa | 0 mm | - | 40 W/m² | - |
| 1778030466 | 20° C | 34% | 1010.3 hPa | 0 mm | - | 42 W/m² | - |
| 1778029560 | 20.56° C | 35% | 1010.1 hPa | 0 mm | - | 53 W/m² | - |
| 1778029256 | 20.56° C | 35% | 1010.2 hPa | 0 mm | - | 63 W/m² | - |
| 1778028953 | 20.56° C | 35% | 1009.9 hPa | 0 mm | - | 66 W/m² | - |
* Rain latest hour (hover to see other rain measurements)
** Current wind speed in m/s (hover to see current wind gust speed)